Location: *
(44.1392°N, 4.8079°E)
Time: 21:44:13
(UTC+00:00)

Cosmos 2279 Rocket - Pass Details

Date: 21 June 2021
Orbit: 963 x 980 km, 82.9° (Epoch: 02 August)

Event Time Altitude Azimuth Distance (km) Brightness Sun altitude
Rises 00:13:54 0° 350° (N) 3,683 8.3 -22.0°
Reaches altitude 10° 00:16:26 10° 350° (N) 2,729 7.3 -22.0°
Maximum altitude 00:22:40 80° 265° (W) 990 3.9 -21.8°
Enters shadow 00:24:57 42° 185° (S) 1,353 4.2 -21.7°
